This is the latest recevied weather packets stored in our database for station/object NE8U. If no packets are shown the sender has not sent any weather packets the latest 10 day(s).
| Time | Temp. | Humidity | Pressure | Rain* | Wind** | Luminosity | Snow |
|---|---|---|---|---|---|---|---|
| 1777931122 | 27.22° C | 21% | 1015 hPa | 0 mm | - | 229 W/m² | - |
| 1777930818 | 27.22° C | 20% | 1014.8 hPa | 0 mm | - | 277 W/m² | - |
| 1777930515 | 27.22° C | 20% | 1014.6 hPa | 0 mm | - | 362 W/m² | - |
| 1777930212 | 27.78° C | 20% | 1014.8 hPa | 0 mm | - | 428 W/m² | - |
| 1777929908 | 27.78° C | 20% | 1014.8 hPa | 0 mm | - | 406 W/m² | - |
| 1777929606 | 27.22° C | 21% | 1014.9 hPa | 0 mm | - | 360 W/m² | - |
| 1777929302 | 27.22° C | 21% | 1014.8 hPa | 0 mm | - | 361 W/m² | - |
| 1777929000 | 27.22° C | 21% | 1014.5 hPa | 0 mm | - | 361 W/m² | - |
| 1777928696 | 26.67° C | 22% | 1014.8 hPa | 0 mm | - | 320 W/m² | - |
| 1777928393 | 26.67° C | 21% | 1014.8 hPa | 0 mm | - | 245 W/m² | - |
| 1777928090 | 26.67° C | 24% | 1014.9 hPa | 0 mm | - | 239 W/m² | - |
| 1777927789 | 26.67° C | 24% | 1014.8 hPa | 0 mm | - | 254 W/m² | - |
| 1777927487 | 27.22° C | 24% | 1014.3 hPa | 0 mm | - | 254 W/m² | - |
| 1777927186 | 27.78° C | 22% | 1014.4 hPa | 0 mm | - | 291 W/m² | - |
| 1777926883 | 27.22° C | 20% | 1014.5 hPa | 0 mm | - | 240 W/m² | - |
| 1777926579 | 27.78° C | 20% | 1014.5 hPa | 0 mm | - | 279 W/m² | - |
| 1777926275 | 27.78° C | 20% | 1014.8 hPa | 0 mm | - | 308 W/m² | - |
| 1777925972 | 27.78° C | 20% | 1014.5 hPa | 0 mm | - | 342 W/m² | - |
| 1777925670 | 27.78° C | 21% | 1014.6 hPa | 0 mm | - | 342 W/m² | - |
| 1777925367 | 27.78° C | 20% | 1014.6 hPa | 0 mm | - | 345 W/m² | - |
| 1777925064 | 27.78° C | 20% | 1014.8 hPa | 0 mm | - | 304 W/m² | - |
| 1777924761 | 27.22° C | 19% | 1014.8 hPa | 0 mm | - | 237 W/m² | - |
| 1777924456 | 27.22° C | 20% | 1014.8 hPa | 0 mm | - | 243 W/m² | - |
| 1777924153 | 27.22° C | 19% | 1014.6 hPa | 0 mm | - | 286 W/m² | - |
| 1777923849 | 27.22° C | 19% | 1014.6 hPa | 0 mm | - | 305 W/m² | - |
* Rain latest hour (hover to see other rain measurements)
** Current wind speed in m/s (hover to see current wind gust speed)